Startseite
Über Mich
AHP4
Galerie
Sehschlangen
Tourenbuch
Bookmarks
Elektronik
Bewertung
Geschichten
[Tagesmessung] [Jahreswerte] [Information]

Messwerte vom 28.02.2022

Die letzten Messwerte von 23:58:46 Uhr:
KategorieMesswert
Temperatur [°C]-1
Luftdruck [mBar]1017
Sonneneinstrahlung0
Wind [km/h]0 aus Nordwest
Niederschlag [l/m²]0
rel.Luftfeucht.86.3%
CO2 [ppm]838

Diagramme
Messwerte vom 28.02.2022
Tagesaggregation
KategorieMinimumMaximumSchnittSumme
Temperatur [°C]-380.1000
Luftdruck [mBar]101710201017.9667
Sonneneinstrahlung24694.0750
Wind [km/h]0
rF [%]67.696.689.17
Niederschlag [l/m²]0
CO2 [ppm]424916713.0
Einordnung alsFrosttag
Kalter Tag

Messungen an benachbarten Tagen: Zur Jahresaggregation 2022
Tabelle aller Messwerte
UhrzeitTemperatur [°C]Luftdruck [mBar]SonneWind [km/h]RichtungRegen [l/m²]rF [%]CO2 [ppm]
00:01:45 -2 1019 0 0 N 0 88.5 647
00:04:48 -2 1019 0 0 N 0 88.5 652
00:07:49 -2 1019 0 0 N 0 88.4 647
00:10:49 -2 1019 0 0 O 0 88.3 650
00:13:46 -2 1018 0 0 O 0 88.4 655
00:16:47 -2 1019 0 0 N 0 88.7 664
00:19:46 -2 1018 0 0 N 0 89.1 664
00:22:46 -2 1019 0 0 O 0 89.4 661
00:25:47 -2 1019 0 0 NO 0 89.4 659
00:28:48 -2 1018 0 0 NO 0 89.6 656
00:31:48 -2 1018 0 0 NO 0 89.9 647
00:34:47 -2 1018 0 0 NO 0 89.9 647
00:37:49 -2 1019 0 0 NO 0 90.1 651
00:40:48 -2 1017 0 0 NO 0 90.1 656
00:43:50 -2 1019 0 0 NO 0 90.1 653
00:46:46 -2 1019 0 0 NO 0 90.1 656
00:49:47 -2 1019 0 0 NO 0 90.3 649
00:52:48 -2 1018 0 0 NO 0 90.1 655
00:55:49 -2 1019 0 0 NO 0 90.1 655
00:58:47 -2 1019 0 0 NO 0 90.4 651
01:01:49 -2 1019 0 0 NO 0 90.4 646
01:04:48 -2 1019 0 0 NO 0 90.4 641
01:07:48 -2 1019 0 0 NO 0 90.6 642
01:10:47 -2 1018 0 0 NO 0 90.8 636
01:13:47 -2 1019 0 0 NO 0 90.9 641
01:16:47 -2 1019 0 0 NO 0 91 641
01:19:45 -2 1019 0 0 NO 0 91.1 641
01:22:46 -2 1019 0 0 N 0 91.3 641
01:25:46 -2 1019 0 0 N 0 91.5 637
01:28:47 -2 1019 0 0 SO 0 91.5 644
01:31:47 -2 1019 0 0 SO 0 91.6 641
01:34:47 -2 1019 0 0 SO 0 91.6 638
01:37:47 -2 1018 0 0 S 0 91.5 635
01:40:46 -2 1019 0 0 NO 0 91.7 626
01:43:47 -2 1019 0 0 NO 0 91.8 631
01:46:47 -2 1018 0 0 NO 0 91.9 634
01:49:46 -2 1018 0 0 NO 0 91.9 635
01:52:48 -2 1018 0 0 SO 0 92 638
01:55:47 -2 1018 0 0 SO 0 92 639
01:58:45 -2 1017 0 0 O 0 92 635
02:01:47 -2 1018 0 0 NO 0 92.2 633
02:04:49 -2 1018 0 0 NO 0 92.7 638
02:07:45 -2 1017 0 0 O 0 93 638
02:10:47 -2 1018 0 0 O 0 93 640
02:13:47 -2 1018 0 0 O 0 93.1 642
02:16:47 -2 1018 0 0 NO 0 93 646
02:19:46 -2 1018 0 0 O 0 93 644
02:22:45 -2 1017 0 0 N 0 93 641
02:25:47 -2 1018 0 0 N 0 93.2 638
02:28:48 -2 1018 0 0 S 0 93.2 632
02:31:47 -2 1018 0 0 SO 0 93.2 638
02:34:46 -2 1017 0 0 O 0 93.3 641
02:37:46 -2 1018 0 0 O 0 93.4 636
02:40:47 -2 1018 0 0 O 0 93.6 633
02:43:49 -2 1018 0 0 SW 0 93.7 635
02:46:48 -2 1018 0 0 NW 0 93.8 635
02:49:46 -2 1017 0 0 W 0 93.6 632
02:52:45 -2 1017 0 0 O 0 94.1 632
02:55:46 -2 1017 0 0 W 0 94.3 627
02:58:47 -2 1018 0 0 W 0 94.4 620
03:01:47 -2 1017 0 0 NO 0 94.5 615
03:04:47 -2 1017 0 0 O 0 94.5 619
03:07:46 -2 1018 0 0 O 0 94.3 622
03:10:46 -2 1017 0 0 O 0 94.1 622
03:13:45 -2 1017 0 0 O 0 94.2 624
03:16:45 -2 1017 0 0 O 0 94.4 621
03:19:46 -2 1018 0 0 SO 0 94.4 618
03:22:46 -2 1017 0 0 SO 0 94.5 620
03:25:47 -3 1017 0 0 NW 0 94.4 621
03:28:47 -3 1017 0 0 N 0 94.5 624
03:31:47 -3 1017 0 0 O 0 94.7 631
03:34:47 -3 1018 0 0 NO 0 94.8 627
03:37:46 -3 1017 0 0 NO 0 94.7 627
03:40:45 -3 1017 0 0 NO 0 94.6 617
03:43:47 -3 1017 0 0 NO 0 94.8 618
03:46:47 -3 1017 0 0 NO 0 94.7 612
03:49:47 -3 1017 0 0 O 0 94.7 612
03:52:48 -3 1017 0 0 NO 0 94.8 612
03:55:59 -3 1018 0 0 NO 0 95.3 609
03:58:47 -3 1017 0 0 O 0 95.4 612
04:01:46 -3 1018 0 0 O 0 95.5 607
04:04:48 -3 1017 0 0 O 0 95.7 606
04:07:48 -3 1018 0 0 O 0 95.9 615
04:10:46 -3 1017 0 0 O 0 95.8 615
04:13:47 -3 1017 0 0 O 0 95.8 617
04:16:48 -3 1017 0 0 NW 0 95.9 615
04:19:47 -3 1018 0 0 O 0 96 615
04:22:46 -3 1017 0 0 O 0 96.1 612
04:25:46 -3 1017 0 0 O 0 96 612
04:28:48 -3 1017 0 0 SO 0 96 607
04:31:45 -3 1017 0 0 NW 0 96.2 614
04:34:45 -3 1018 0 0 O 0 96.2 612
04:37:46 -3 1017 0 0 O 0 96.6 616
04:40:45 -3 1017 0 0 O 0 96.4 616
04:43:47 -3 1017 0 0 O 0 96.3 608
04:46:47 -3 1017 0 0 O 0 96.4 610
04:49:45 -3 1017 0 0 O 0 96.4 616
04:52:47 -3 1017 0 0 N 0 96.6 618
04:55:46 -3 1017 0 0 O 0 96.6 614
04:58:47 -2 1018 0 0 O 0 96.6 609
05:01:47 -2 1017 0 0 O 0 96.6 609
05:04:44 -2 1017 0 0 O 0 96.6 611
05:07:50 -2 1017 0 0 O 0 96.6 608
05:10:46 -2 1017 0 0 O 0 96.6 604
05:13:47 -2 1017 0 0 NW 0 96.6 594
05:16:45 -2 1017 0 0 O 0 96.6 592
05:19:48 -2 1017 0 0 NO 0 96.6 597
05:22:48 -2 1017 0 0 O 0 96.6 603
05:25:45 -2 1017 0 0 O 0 96.6 603
05:28:44 -2 1017 0 0 O 0 96.6 600
05:31:48 -2 1017 0 0 O 0 96.6 598
05:34:47 -2 1017 0 0 O 0 96.6 594
05:37:46 -2 1017 0 0 N 0 96.6 597
05:40:45 -2 1017 0 0 S 0 96.6 600
05:43:46 -2 1017 0 0 S 0 96.6 597
05:46:47 -2 1018 0 0 O 0 96.6 600
05:49:47 -2 1017 0 0 SO 0 96.6 596
05:52:47 -2 1018 0 0 O 0 96.6 590
05:55:48 -2 1017 0 0 SO 0 96.6 586
05:58:48 -2 1017 0 0 O 0 96.6 585
06:01:45 -2 1017 0 0 N 0 96.6 592
06:04:48 -2 1018 0 0 SO 0 96.6 588
06:07:48 -3 1017 0 0 S 0 96.6 582
06:10:47 -3 1018 0 0 O 0 96.6 585
06:13:48 -3 1017 0 0 NO 0 96.6 579
06:16:49 -3 1018 0 0 NO 0 96.6 577
06:19:47 -2 1018 0 0 NW 0 96.6 574
06:22:47 -2 1017 0 0 O 0 96.6 575
06:25:47 -2 1017 0 0 NO 0 96.6 574
06:28:45 -2 1018 0 0 O 0 96.6 574
06:31:50 -2 1018 0 0 NO 0 96.6 574
06:34:48 -2 1017 0 0 NO 0 96.6 579
06:37:47 -2 1018 0 0 O 0 96.6 580
06:40:47 -2 1018 0 0 NO 0 96.6 571
06:43:49 -2 1018 3 0 NW 0 96.6 577
06:46:47 -2 1017 6 0 N 0 96.6 580
06:49:46 -2 1018 9 0 S 0 96.6 582
06:52:48 -2 1018 14 0 SO 0 96.6 576
06:55:48 -2 1017 19 0 S 0 96.6 567
06:58:48 -2 1018 26 0 NO 0 96.6 579
07:01:47 -2 1018 33 0 N 0 96.6 573
07:04:48 -2 1018 42 0 NO 0 96.6 565
07:07:46 -2 1018 50 0 O 0 96.6 556
07:10:47 -2 1019 59 0 NO 0 96.6 559
07:13:49 -2 1018 68 0 SO 0 96.6 550
07:16:46 -2 1018 76 0 NO 0 96.6 556
07:19:47 -2 1018 84 0 NO 0 96.6 553
07:22:49 -2 1018 91 0 S 0 96.6 549
07:25:47 -2 1018 98 0 O 0 96.6 548
07:28:51 -2 1019 49 0 S 0 96.6 489
07:31:47 -2 1019 114 0 O 0 96.6 424
07:34:47 -2 1019 118 0 S 0 96.6 521
07:37:48 -2 1019 126 0 S 0 96.6 565
07:40:48 -2 1018 130 0 O 0 96.6 567
07:43:46 -2 1019 137 0 O 0 96.6 560
07:46:48 -2 1018 141 0 O 0 96.6 581
07:49:47 -2 1019 146 0 O 0 96.6 570
07:52:50 -2 1019 157 0 NO 0 96.6 560
07:55:47 -2 1019 155 0 O 0 96.6 553
07:58:48 -2 1018 153 0 S 0 96.6 553
08:01:51 -2 1019 158 0 SW 0 96.6 556
08:04:51 -2 1019 158 0 NO 0 96.6 556
08:07:50 -2 1019 166 0 SO 0 96.6 556
08:10:53 -2 1018 169 0 SW 0 96.6 550
08:13:50 -2 1019 169 0 SO 0 96.6 556
08:16:49 -2 1018 174 0 SO 0 96.6 556
08:19:49 -2 1019 176 0 NO 0 96.6 562
08:22:47 -1 1018 179 0 O 0 96.6 571
08:25:46 -1 1019 178 0 O 0 96.6 573
08:28:46 -2 1018 181 0 S 0 96.6 579
08:31:47 -2 1018 181 0 S 0 96.6 574
08:34:47 -1 1018 182 0 S 0 96.6 576
08:37:45 -1 1019 186 0 O 0 96.6 571
08:40:46 -1 1019 186 0 O 0 96.6 564
08:43:47 -1 1019 187 0 S 0 96.6 559
08:46:47 -1 1019 190 0 SO 0 96.6 559
08:49:47 -1 1019 187 0 S 0 96.6 564
08:52:47 -1 1019 188 0 SO 0 96.6 565
08:55:47 -1 1019 193 0 S 0 96.6 571
08:58:48 -1 1018 191 0 N 0 96.6 568
09:01:47 -1 1019 194 0 SO 0 96.6 571
09:04:48 -1 1018 191 0 O 0 96.6 574
09:07:46 -1 1018 194 0 O 0 96.6 586
09:10:51 -1 1018 196 0 O 0 96.6 588
09:13:48 -1 1018 199 0 NO 0 96.6 579
09:16:48 -1 1019 201 0 O 0 96.6 579
09:19:48 -1 1019 201 0 NO 0 96.6 582
09:22:47 -1 1019 204 0 O 0 96.6 589
09:25:47 -1 1019 203 0 SO 0 96.6 599
09:28:50 -1 1019 202 0 S 0 96.6 594
09:31:49 -1 1019 205 0 N 0 96.6 588
09:34:51 -1 1019 210 0 NO 0 96.6 577
09:37:50 -1 1020 208 0 NO 0 96.6 581
09:40:50 -1 1019 210 0 SW 0 96.6 582
09:43:49 -1 1019 210 0 SW 0 96.6 589
09:46:49 0 1019 211 0 SO 0 96.6 588
09:49:47 0 1019 213 0 W 0 96.6 576
09:52:47 0 1019 213 0 NW 0 96.6 577
09:55:48 0 1019 212 0 N 0 96.6 584
09:58:48 0 1019 212 0 SW 0 96.6 600
10:01:50 0 1019 214 0 SO 0 96.6 601
10:04:48 0 1019 213 0 SO 0 96.6 597
10:07:50 0 1019 212 0 SO 0 96.6 602
10:10:48 0 1020 215 0 S 0 96.6 609
10:13:47 0 1019 217 0 O 0 96.6 618
10:16:50 0 1019 214 0 S 0 96.6 626
10:19:49 0 1019 215 0 O 0 96.6 621
10:22:50 1 1019 215 0 SO 0 96.6 606
10:25:47 1 1019 216 0 S 0 96.5 605
10:28:49 1 1019 219 0 SO 0 95.9 612
10:31:49 1 1019 222 0 SO 0 95.4 626
10:34:48 1 1019 221 0 W 0 95.4 629
10:37:47 1 1019 220 0 S 0 94.9 625
10:40:48 1 1019 218 0 SO 0 94.8 632
10:43:47 1 1020 219 0 O 0 94.8 632
10:46:47 1 1020 218 0 O 0 94.6 649
10:49:48 1 1019 219 0 SW 0 94.1 646
10:52:47 1 1019 224 0 S 0 93.8 644
10:55:49 1 1019 223 0 O 0 93.8 669
10:58:46 1 1019 223 0 NO 0 94.1 668
11:01:49 2 1019 219 0 N 0 93.9 673
11:04:47 2 1019 225 0 NO 0 93.2 675
11:07:47 2 1019 224 0 O 0 92.9 679
11:10:50 2 1020 224 0 SW 0 92.3 683
11:13:47 2 1019 224 0 NO 0 92.2 685
11:16:47 2 1018 223 0 S 0 92.1 688
11:19:50 2 1020 223 0 SO 0 91.4 690
11:22:49 2 1019 224 0 SW 0 91.1 688
11:25:50 2 1020 223 0 NO 0 91.2 676
11:28:48 2 1020 224 0 N 0 91.3 682
11:31:48 2 1020 226 0 SW 0 90.9 691
11:34:47 2 1019 226 0 O 0 91.1 697
11:37:49 2 1020 227 0 SO 0 91.1 700
11:40:47 3 1019 222 0 S 0 91.6 702
11:43:48 3 1020 220 0 NO 0 90.4 707
11:46:48 3 1019 220 0 NO 0 89.4 706
11:49:46 4 1019 219 0 N 0 88.1 711
11:52:49 4 1020 220 0 SO 0 84.5 716
11:55:49 3 1020 224 0 NW 0 84.8 720
11:58:47 4 1019 228 0 SO 0 85.1 723
12:01:48 3 1019 225 0 SO 0 85.1 731
12:04:47 3 1019 228 0 O 0 85 728
12:07:49 3 1019 227 0 O 0 84.4 726
12:10:48 3 1019 223 0 SO 0 84.6 728
12:13:49 3 1020 220 0 O 0 85.2 709
12:16:48 4 1019 220 0 SO 0 85.1 707
12:19:50 4 1020 219 0 SO 0 83.8 706
12:22:50 5 1020 218 0 SO 0 82.8 726
12:25:49 6 1020 219 0 SO 0 82 731
12:28:47 6 1019 219 0 O 0 75.8 735
12:31:47 6 1019 220 0 SO 0 75.1 731
12:34:46 5 1019 221 0 NW 0 74.4 741
12:37:47 6 1020 222 0 O 0 75.9 749
12:40:47 5 1020 222 0 O 0 74.3 752
12:43:47 5 1019 222 0 SO 0 74.3 758
12:46:46 5 1019 221 0 W 0 77.5 761
12:49:46 5 1019 225 0 0 74.8 765
12:52:47 5 1019 224 0 SO 0 74.4 767
12:55:47 6 1020 225 0 SO 0 76.4 766
12:58:47 6 1019 223 0 O 0 71.8 758
13:01:50 6 1019 226 0 SO 0 71.9 763
13:04:47 6 1019 225 0 O 0 73.1 770
13:07:46 6 1018 227 0 S 0 74 773
13:10:47 6 1019 228 0 0 73.8 759
13:13:47 6 1019 228 0 SO 0 72.7 770
13:16:46 6 1020 229 0 O 0 73.5 773
13:19:47 6 1019 229 0 S 0 73.8 783
13:22:48 6 1019 230 0 SO 0 72.8 780
13:25:49 7 1020 230 0 SO 0 73.9 788
13:28:47 7 1019 231 0 O 0 70.4 792
13:31:48 7 1018 230 0 SO 0 71.9 796
13:34:49 8 1020 231 0 SO 0 70.1 796
13:37:47 8 1019 231 0 S 0 69.9 793
13:40:47 7 1019 232 0 W 0 67.6 792
13:43:48 6 1019 234 0 NW 0 70.2 798
13:46:48 6 1019 231 0 NO 0 71.1 797
13:49:48 5 1019 231 0 O 0 72.3 793
13:52:48 5 1019 235 0 NO 0 74.2 792
13:55:46 5 1018 237 0 O 0 75.4 776
13:58:48 5 1020 237 0 NO 0 74.8 783
14:01:46 5 1019 236 0 N 0 74.4 785
14:04:50 5 1020 231 0 S 0 74.5 790
14:07:47 5 1019 238 0 SO 0 74.2 788
14:10:46 6 1019 237 0 O 0 74.1 790
14:13:46 5 1019 241 0 SW 0 73.7 796
14:16:49 6 1019 242 0 SO 0 73 794
14:19:49 6 1019 243 0 SW 0 73.6 807
14:22:47 6 1019 240 0 S 0 72.4 805
14:25:48 6 1019 244 0 NO 0 71.4 812
14:28:47 6 1018 244 0 N 0 71.5 806
14:31:47 6 1019 240 0 O 0 70.7 815
14:34:46 5 1018 243 0 S 0 71 811
14:37:45 5 1019 244 0 O 0 71.6 813
14:40:45 5 1019 245 0 N 0 71.9 816
14:43:47 4 1019 245 0 S 0 73.6 815
14:46:48 4 1018 237 0 NO 0 75.2 804
14:49:48 4 1019 239 0 NW 0 75.6 805
14:52:46 4 1018 236 0 O 0 76.5 798
14:55:46 4 1018 235 0 N 0 77.4 796
14:58:46 4 1020 243 0 O 0 77.3 799
15:01:49 4 1018 234 0 N 0 78.3 805
15:04:45 4 1018 243 0 NO 0 79.2 807
15:07:47 4 1018 238 0 W 0 78.5 799
15:10:51 5 1019 245 0 SO 0 78.2 801
15:13:47 4 1018 245 0 O 0 77.6 805
15:16:47 5 1018 246 0 S 0 77.8 802
15:19:50 5 1018 246 0 SW 0 77.6 795
15:22:47 5 1018 246 0 N 0 76.2 805
15:25:49 4 1018 246 0 NO 0 75.3 808
15:28:49 4 1018 244 0 NO 0 75.3 811
15:31:50 4 1018 240 0 NW 0 76.3 816
15:34:45 4 1017 237 0 O 0 77.2 815
15:37:47 3 1018 234 0 NW 0 77.2 817
15:40:46 3 1018 232 0 O 0 78.1 808
15:43:47 3 1017 226 0 O 0 79.7 810
15:46:48 3 1018 226 0 O 0 80.9 808
15:49:51 3 1018 227 0 W 0 81.1 800
15:52:48 2 1018 222 0 SO 0 81 802
15:55:46 2 1018 228 0 N 0 81.7 799
15:58:48 2 1019 224 0 S 0 82.2 797
16:01:48 3 1018 223 0 O 0 82.6 802
16:04:47 3 1018 220 0 0 82.6 799
16:07:47 3 1018 216 0 O 0 81.2 800
16:10:49 3 1017 217 0 SO 0 80.1 790
16:13:48 3 1017 215 0 N 0 80.2 793
16:16:49 3 1018 218 0 SO 0 80.4 791
16:19:49 3 1017 216 0 O 0 79.9 793
16:22:45 3 1017 220 0 O 0 79.5 794
16:25:49 3 1017 213 0 S 0 79.7 799
16:28:48 3 1018 212 0 O 0 79.7 792
16:31:49 3 1018 215 0 NO 0 79.6 795
16:34:47 3 1018 221 0 SO 0 79.4 798
16:37:47 3 1018 214 0 S 0 79.6 805
16:40:49 3 1017 228 0 O 0 79.9 807
16:43:49 3 1017 231 0 O 0 80 810
16:46:47 3 1018 220 0 S 0 79.9 817
16:49:48 3 1018 210 0 NO 0 79.8 823
16:52:47 2 1017 209 0 N 0 80 822
16:55:48 2 1018 206 0 O 0 80.3 817
16:58:48 2 1017 203 0 NO 0 80.7 820
17:01:47 2 1017 202 0 W 0 80.9 835
17:04:49 2 1018 200 0 O 0 80.9 843
17:07:48 2 1018 199 0 N 0 81.1 829
17:10:48 2 1017 198 0 SO 0 81.4 826
17:13:48 2 1018 196 0 NO 0 81.9 824
17:16:48 2 1017 193 0 NO 0 82.2 832
17:19:47 2 1017 191 0 NW 0 82.3 822
17:22:48 2 1017 189 0 S 0 82.4 819
17:25:46 1 1018 185 0 O 0 82.7 819
17:28:50 1 1017 181 0 N 0 83 817
17:31:47 1 1017 177 0 NO 0 83.4 809
17:34:48 1 1017 172 0 NO 0 83.6 806
17:37:47 1 1018 166 0 O 0 83.8 797
17:40:47 1 1017 159 0 NO 0 84.2 790
17:43:48 1 1017 152 0 NW 0 84.8 779
17:46:49 1 1017 143 0 O 0 85.2 779
17:49:46 1 1017 133 0 NO 0 85.6 781
17:52:48 1 1017 122 0 SO 0 85.8 779
17:55:46 1 1018 109 0 O 0 85.8 782
17:58:45 1 1018 96 0 O 0 86.1 782
18:01:49 1 1018 81 0 SO 0 85.7 781
18:04:45 1 1017 66 0 0 85.5 778
18:07:47 1 1017 50 0 W 0 85.4 787
18:10:49 1 1018 35 0 SW 0 85.4 778
18:13:46 1 1017 23 0 O 0 85.9 777
18:16:44 1 1017 14 0 O 0 86.4 774
18:19:46 1 1017 8 0 O 0 86.6 780
18:22:49 1 1017 5 0 NO 0 86.6 781
18:25:49 1 1017 3 0 SO 0 86.8 783
18:28:46 0 1017 0 0 O 0 87.1 789
18:31:46 0 1018 0 0 O 0 87.3 784
18:34:49 0 1017 0 0 NO 0 88.1 782
18:37:46 0 1018 0 0 O 0 88.2 779
18:40:48 0 1017 0 0 NO 0 88.2 785
18:43:46 0 1017 0 0 NO 0 88.3 791
18:46:46 0 1017 0 0 O 0 88.3 794
18:49:45 0 1017 0 0 O 0 88.4 796
18:52:47 0 1017 0 0 SO 0 88.7 805
18:55:48 -1 1018 0 0 O 0 89.2 805
18:58:48 -1 1017 0 0 SO 0 89.4 802
19:01:46 -1 1017 0 0 NO 0 89.4 800
19:04:48 -1 1017 0 0 O 0 89.9 796
19:07:46 -1 1017 0 0 O 0 90.2 805
19:10:47 -1 1017 0 0 NO 0 90.4 791
19:13:47 -1 1018 0 0 NO 0 90.4 797
19:16:46 -1 1017 0 0 O 0 90.4 797
19:19:45 -1 1017 0 0 O 0 90.4 790
19:22:47 -1 1017 0 0 O 0 90.7 797
19:25:45 -1 1017 0 0 N 0 90.9 795
19:28:47 -1 1017 0 0 NO 0 91.2 797
19:31:46 -1 1017 0 0 O 0 91.4 800
19:34:43 -1 1018 0 0 N 0 91.6 813
19:37:47 -1 1017 0 0 NO 0 92 808
19:40:49 -1 1017 0 0 SO 0 92.5 813
19:43:45 -1 1017 0 0 N 0 92.7 814
19:46:44 -1 1017 0 0 N 0 93 826
19:49:46 -1 1017 0 0 NO 0 93.3 817
19:52:47 -1 1017 0 0 O 0 93.5 822
19:55:47 -1 1017 0 0 O 0 93.6 826
19:58:46 -1 1018 0 0 O 0 93.5 823
20:01:45 -1 1017 0 0 O 0 93.6 817
20:04:46 -1 1017 0 0 N 0 93.7 814
20:07:47 -1 1017 0 0 NO 0 93.8 823
20:10:47 -1 1017 0 0 NO 0 93.9 823
20:13:48 -1 1017 0 0 N 0 93.9 828
20:16:47 -1 1017 0 0 O 0 93.9 829
20:19:46 -1 1017 0 0 O 0 94 827
20:22:49 -1 1018 0 0 N 0 94.2 826
20:25:48 -1 1017 0 0 SO 0 94.3 822
20:28:46 -1 1017 0 0 SO 0 94.3 820
20:31:46 -1 1017 0 0 O 0 94.1 826
20:34:46 -1 1017 0 0 SO 0 94.2 822
20:37:47 -1 1017 0 0 O 0 94.2 832
20:40:49 -1 1018 0 0 O 0 94.3 827
20:43:47 -1 1017 0 0 NO 0 94.4 837
20:46:47 -1 1017 0 0 NO 0 94.2 837
20:49:45 -1 1017 0 0 O 0 94.1 840
20:52:48 -1 1017 0 0 O 0 94.2 843
20:55:48 -1 1017 0 0 NO 0 94.2 848
20:58:46 -1 1017 0 0 N 0 94.1 855
21:01:47 -1 1017 0 0 SW 0 94 860
21:04:47 -1 1017 0 0 W 0 93.8 862
21:07:46 -1 1017 0 0 NO 0 93.6 855
21:10:51 -1 1017 0 0 O 0 93.3 855
21:13:45 -1 1017 0 0 O 0 93.2 858
21:16:45 -1 1017 0 0 NO 0 93 861
21:19:50 -1 1017 0 0 SO 0 93.1 844
21:22:48 -1 1017 0 0 W 0 93.1 853
21:25:50 -1 1017 0 0 O 0 93 855
21:28:46 -1 1017 0 0 O 0 93.1 855
21:31:45 -1 1017 0 0 N 0 93 857
21:34:47 -1 1017 0 0 SW 0 92.9 855
21:37:47 -1 1017 0 0 SW 0 92.4 853
21:40:47 -1 1017 0 0 SO 0 91.8 855
21:43:44 -1 1017 0 0 O 0 91.4 854
21:46:45 -1 1017 0 0 N 0 90.8 851
21:49:45 -1 1017 0 0 O 0 90.6 849
21:52:47 -1 1017 0 0 NO 0 90.2 855
21:55:46 -1 1017 0 0 O 0 89.8 857
21:58:47 -1 1017 0 0 NO 0 89.6 864
22:01:47 -1 1017 0 0 O 0 89.5 867
22:04:48 -1 1017 0 0 N 0 88.7 864
22:07:46 -1 1017 0 0 S 0 88.3 863
22:10:47 -1 1017 0 0 NO 0 88.1 852
22:13:48 -1 1017 0 0 S 0 87.6 851
22:16:45 -1 1017 0 0 SO 0 87.5 849
22:19:49 -1 1017 0 0 SO 0 87.7 852
22:22:49 -1 1017 0 0 SO 0 87.7 873
22:25:46 -1 1017 0 0 NO 0 87.7 888
22:28:47 -1 1017 0 0 NO 0 87.7 897
22:31:49 -1 1017 0 0 NO 0 87.8 905
22:34:46 -1 1017 0 0 NO 0 87.8 916
22:37:47 -1 1017 0 0 O 0 87.7 910
22:40:48 -1 1017 0 0 NW 0 87.3 905
22:43:49 -1 1017 0 0 NW 0 87 896
22:46:46 -1 1017 0 0 W 0 86.9 887
22:49:48 -1 1017 0 0 N 0 86.8 886
22:52:46 -1 1017 0 0 N 0 86.7 887
22:55:49 -1 1017 0 0 NW 0 86.6 895
22:58:48 -1 1017 0 0 O 0 86.7 899
23:01:47 -1 1017 0 0 NW 0 86.8 901
23:04:48 -1 1017 0 0 NO 0 86.8 899
23:07:49 -1 1017 0 0 NO 0 86.9 888
23:10:48 -1 1017 0 0 SO 0 86.6 875
23:13:47 -1 1017 0 0 NO 0 86.4 870
23:16:44 -1 1017 0 0 0 86.2 863
23:19:48 -1 1017 0 0 N 0 85.8 861
23:22:47 -1 1017 0 0 O 0 85.7 858
23:25:46 -1 1017 0 0 N 0 85.8 852
23:28:47 -1 1017 0 0 NO 0 86 850
23:31:47 -1 1017 0 0 SO 0 85.8 844
23:34:47 -1 1017 0 0 N 0 85.7 848
23:37:47 -1 1017 0 0 NO 0 85.7 847
23:40:45 -1 1017 0 0 SW 0 85.7 857
23:43:46 -1 1017 0 0 O 0 85.6 856
23:46:48 -1 1017 0 0 O 0 85.6 846
23:49:47 -1 1017 0 0 N 0 85.6 838
23:52:49 -1 1017 0 0 NO 0 85.9 834
23:55:46 -1 1017 0 0 S 0 86.2 834
23:58:46 -1 1017 0 0 NW 0 86.3 838

Letzte Änderung : 04-Jan-2022
Copyright Jens Köhler, Wolfsburg, Obere Dorfstraße 10d